Miscellaneous Local Product
Issued by NWS North Platte, NE

Home | Current Version | Previous Version | Text Only | Print | Product List | Glossary On
Versions: 1 2 3 4 5 6 7 8 9 10 11 12 13 14 15 16 17 18 19 20 21 22 23 24 25 26 27 28 29 30 31 32 33 34 35 36 37 38 39 40 41 42 43 44 45 46 47 48 49 50
410
AXUS43 KLBF 281910
MISLBF


WESTERN AND NORTH CENTRAL NEBRASKA HOURLY WEATHER ROUNDUP
NATIONAL WEATHER SERVICE NORTH PLATTE NE
200 PM CDT SAT MAY 28 2016

NOTE: "FAIR" INDICATES FEW OR NO CLOUDS BELOW 12,000 FEET WITH NO
SIGNIFICANT WEATHER AND/OR OBSTRUCTIONS TO VISIBILITY.

NOTE: STATIONS NOT REPORTING VARIABLES SUCH AS SKY/WEATHER OR
PRESSURE ARE PROVIDED BY RAWS AND APRS NETWORKS AND ARE NOT UNDER
NATIONAL WEATHER SERVICE QUALITY CONTROL.

...OBSERVATIONS IN AND NEAR THE EASTERN PANHANDLE OF NEBRASKA...

CITY           SKY/WX    TMP DP  RH WIND       PRES   REMARKS
PINE RIDGE     SUNNY     72  42  34 W5        29.91F
CHADRON        MOSUNNY   70  43  37 CALM      29.92F
ALLIANCE       MOSUNNY   69  45  41 VRB5      29.94F
SIDNEY         SUNNY     70  46  42 W8        29.99F
CRESCENT LAKE    N/A     69  42  37 W6G15       N/A
BIG SPRINGS      N/A     68  53  57 W9          N/A
$$

...OBSERVATIONS IN NORTHERN NEBRASKA AND FAR SOUTHERN SOUTH DAKOTA...

CITY           SKY/WX    TMP DP  RH WIND       PRES   REMARKS
WINNER         FAIR      68  55  63 NW10      29.86S
VALENTINE      MOSUNNY   70  48  45 NW8       29.89F
THEDFORD       MOSUNNY   69  49  49 NW13      29.92S
AINSWORTH      PTSUNNY   69  52  54 NW10G16   29.89F
O`NEILL        PTSUNNY   66  58  77 NW10      29.85F
ORD            MOSUNNY   70  52  52 NW17G26   29.86S
BROKEN BOW     MOSUNNY   70  52  52 NW15      29.90S
BUTTE            N/A     64  58  82 NW10        N/A
CHAMBERS         N/A     70  57  63 N3          N/A
EWING            N/A     64  60  88 W8          N/A
$$

...OBSERVATIONS IN SOUTHWEST NEBRASKA AND FAR NORTHEAST COLORADO...

CITY           SKY/WX    TMP DP  RH WIND       PRES   REMARKS
WRAY           FAIR      72  45  37 W7G16     29.99F
HOLYOKE        FAIR      73  45  35 W7        29.98F
IMPERIAL       MOSUNNY   70  50  49 W14G21    29.97S
OGALLALA       MOSUNNY   71  49  45 W8        29.95F
NORTH PLATTE   PTSUNNY   68  51  54 W7        29.93S
MCCOOK         MOSUNNY   73  51  46 W7        29.94F
LEXINGTON      PTSUNNY   70  56  61 W7        29.92S
PAXTON           N/A     68  55  63 W3          N/A
STAPLETON        N/A     70  51  50 CALM        N/A
GOTHENBURG       N/A     70  49  47 W6          N/A
CALLAWAY         N/A     68  54  61 NW10        N/A
$$

...OBSERVATIONS IN CENTRAL LINCOLN COUNTY AREA...

CITY           SKY/WX    TMP DP  RH WIND       PRES   REMARKS
N.P. AIRPORT   PTSUNNY   68  51  54 W7        29.93S
N.P. DOWNTOWN    N/A     71  51  49 W3G12       N/A
N.P. SOUTHEAST   N/A     71  51  48 W5G14       N/A
N.P. HILLCREST   N/A     69  53  55 W12         N/A
$$

...SOME OBSERVATIONS FROM AROUND THE REGION...

CITY           SKY/WX    TMP DP  RH WIND       PRES   REMARKS
DENVER         MOSUNNY   67  35  30 VRB3      30.03F
LARAMIE        CLOUDY    59  30  33 W16G23    30.08F
CHEYENNE       CLOUDY    64  34  32 MISG      30.03F
SCOTTSBLUFF    SUNNY     73  44  35 W9        29.95F
RAPID CITY     LGT RAIN  57  53  86 W9        29.95R FOG
BISMARCK       CLOUDY    67  55  65 NE7       29.87S
PIERRE         CLOUDY    72  54  53 N12       29.84S
SIOUX FALLS    PTSUNNY   69  60  73 NE14G20   29.76S
OMAHA          PTSUNNY   71  56  58 SW17G26   29.79R
GRAND ISLAND   PTSUNNY   69  54  58 NW20G25   29.87S
KANSAS CITY    MOSUNNY   73  60  63 W15G24    29.88R
WICHITA        MOSUNNY   78  57  48 W7        29.93S
OKLAHOMA CITY  MOSUNNY   80  60  50 W3        29.95F
DALLAS         CLOUDY    80  70  71 S6        29.95F
AMARILLO       SUNNY     77  44  30 CALM      30.05F
DODGE CITY     SUNNY     74  51  44 NW10      29.98F
HAYS           MOSUNNY   72  52  49 W12       29.95S
GOODLAND       MOSUNNY   69  46  43 W10G16    29.99F
$$




USA.gov is the U.S. government's official web portal to all federal, state and local government web resources and services.